Location: Chevoux
(46.3801°N, 4.9476°E)
Time: 12:08:40
(UTC+00:00)

Cosmos 1048 Rocket - Pass Details

Date: 28 January 2021
Orbit: 743 x 791 km, 74.0° (Epoch: 07 March)

Event Time Altitude Azimuth Distance (km) Brightness Sun altitude
Rises 18:39:36 0° 339° (NNW) 3,197 7.4 -20.8°
Reaches altitude 10° 18:41:58 10° 341° (NNW) 2,271 6.6 -21.2°
Maximum altitude 18:47:07 77° 68° (ENE) 774 3.8 -22.1°
Enters shadow 18:49:39 31° 149° (SSE) 1,309 4.9 -22.5°
